Weather Roundup
Issued by NWS

Home | Current Version | Previous Version | Graphics & Text | Print | Product List | Glossary Off
Versions: 1 2 3 4 5 6 7 8 9 10 11 12 13 14 15 16 17 18 19 20 21 22 23 24 25 26 27 28 29 30 31 32 33 34 35 36 37 38 39 40 41 42 43 44 45 46 47 48 49 50

000
NZUS93 KARX 271710
HRRWXR

CURRENT HOURLY OBSERVATIONS ACROSS
MUCH OF THE UPPER MISSISSIPPI VALLEY
NATIONAL WEATHER SERVICE LA CROSSE WI
1200 PM CDT THU APR 27 2017


...SOUTHEAST MINNESOTA...


CITY           SKY/WX    TMP DP  RH WIND       PRES   REMARKS
ROCHESTER      CLOUDY    36  32  85 W17       29.56R WCI  26
ROCHESTER/MAYO CLOUDY    36  31  79 W21       29.55R WCI  25
WINONA         CLOUDY    37  32  81 NW9       29.55R WCI  31
AUSTIN         CLOUDY    36  28  75 W16       29.58S WCI  26
ALBERT LEA     CLOUDY    34  28  80 W9G20     29.60S WCI  26
DODGE CENTER   CLOUDY    34  30  86 W14       29.57R FOG     WCI  24
PRESTON        CLOUDY    36  31  81 W18       29.57R WCI  26
OWATONNA       CLOUDY    36  30  80 W16       29.59R WCI  26
FARIBAULT      CLOUDY    34  30  86 W14       29.59R WCI  24
$$

...ELSEWHERE IN MINNESOTA...


CITY           SKY/WX    TMP DP  RH WIND       PRES   REMARKS
MINNEAPOLIS    CLOUDY    34  26  72 NW12      29.58R WCI  25
INTNL FALLS    CLOUDY    25  14  63 N12       29.58S WCI  14
DULUTH         CLOUDY    25  20  81 NW15G21   29.48F WCI  13
RED WING       CLOUDY    36  27  69 NW12G20   29.56R WCI  27
REDWOOD FALLS  CLOUDY    33  23  66 NW14G23   29.65R WCI  23
MANKATO        CLOUDY    33  29  85 W16       29.62R WCI  23
WORTHINGTON    CLOUDY    35  24  64 NW14G24   29.67R WCI  26
FAIRMONT       CLOUDY    34  26  72 NW15G22   29.65R WCI  24
$$

...SOUTHWEST WISCONSIN...


CITY           SKY/WX    TMP DP  RH WIND       PRES   REMARKS
LA CROSSE      CLOUDY    42  33  70 W13       29.54R
PRAIRIE DU CHI CLOUDY    40  32  73 W13G22    29.58R WCI  33
BOSCOBEL       CLOUDY    44  36  73 SW10G20   29.56S
LONE ROCK      LGT RAIN  40  35  83 W14       29.55R WCI  32
PLATTEVILLE    CLOUDY    40  38  92 W22       29.58R WCI  31
FORT MC COY    CLOUDY    36  33  91 W7        29.53S WCI  30
CAMP DOUGLAS   CLOUDY    36  32  87 W12       29.52R WCI  27
MAUSTON-NEW LI CLOUDY    35  32  90 W9G18     29.51R FOG     WCI  28
VIROQUA        CLOUDY    37  33  84 W13G18    29.53R WCI  29
WIS DELLS      LGT RAIN  36  34  94 W10G17    29.52R WCI  28
$$

...ELSEWHERE IN WISCONSIN...


CITY           SKY/WX    TMP DP  RH WIND       PRES   REMARKS
MILWAUKEE      LGT RAIN  46  37  71 W23G33    29.50R
MADISON        CLOUDY    38  35  89 W7        29.52R WCI  33
GREEN BAY      LGT RAIN  41  39  93 W18G24    29.40R
EAU CLAIRE     CLOUDY    34  27  75 W14       29.52R WCI  25
BLACK RVR FLS  CLOUDY    36  32  87 W13       29.52R WCI  27
MEDFORD        LGT SNOW  29  27  91 W8        29.45R WCI  21
WAUSAU         SNOW      31  30  96 W14       29.43R VSB 1/2 WCI  21
WIS RAPIDS     LGT SNOW  33  31  92 NW12      29.49R FOG     WCI  24
MARSHFIELD     LGT SNOW  31  28  89 NW10      29.46R FOG     WCI  22
RICE LAKE      CLOUDY    31  27  86 W13       29.53R WCI  21
$$

...NORTHEAST IOWA...


CITY           SKY/WX    TMP DP  RH WIND       PRES   REMARKS
WATERLOO       CLOUDY    39  28  64 W15G24    29.63R WCI  31
DUBUQUE        CLOUDY    39  34  82 W18G26    29.59R WCI  30
DECORAH        MIX PCPN  37  32  81 W9G16     29.56R WCI  31
MASON CITY     CLOUDY    34  28  79 W18       29.64R WCI  23
CHARLES CITY   MIX PCPN  37  34  87 W14       29.61S WCI  29
OELWEIN        CLOUDY    39  34  81 W17G24    29.61R WCI  30
$$

...ELSEWHERE IN IOWA...


CITY           SKY/WX    TMP DP  RH WIND       PRES   REMARKS
DES MOINES     CLOUDY    41  31  67 W15       29.71R
IOWA CITY      CLOUDY    41  33  73 W18G25    29.69R
FORT DODGE     CLOUDY    36  27  69 W12G20    29.69R WCI  27
MARSHALLTOWN   CLOUDY    38  29  70 W20G25    29.67R WCI  28
CEDAR RAPIDS   CLOUDY    39  33  79 W15       29.65R WCI  31
$$

...NORTHERN ILLINOIS...


CITY           SKY/WX    TMP DP  RH WIND       PRES   REMARKS
CHICAGO-OHARE  CLOUDY    46  37  71 W20G28    29.58R
CHICAGO-MIDWAY CLOUDY    46  38  73 W22G29    29.60R
MOLINE         CLOUDY    43  34  70 W16G23    29.65R
ROCKFORD       LGT RAIN  42  37  82 W16G28    29.60R
PEORIA         CLOUDY    47  39  74 W10       29.67S
$$

NOTE: "FAIR" INDICATES FEW OR NO CLOUDS BELOW 12,000 FEET WITH NO
SIGNIFICANT WEATHER AND/OR OBSTRUCTIONS TO VISIBILITY. WIND
SPEEDS ARE IN MILES-PER-HOUR.




USA.gov is the U.S. government's official web portal to all federal, state and local government web resources and services.